Location: Appeville
(49.3218°N, 1.3427°W)
Time: 00:57:00
(UTC+00:00)

ISS - Visible Passes

Search period start: 21 February 2020 00:00
Search period end: 02 March 2020 00:00
Orbit: 416 x 422 km, 51.6° (Epoch: 21 February)

Date Brightness Start Highest point End Pass type
(mag) Time Alt. Az. Time Alt. Az. Time Alt. Az.
21 Feb -1.1 06:29:42 10° SSW 06:32:19 21° SE 06:34:58 10° E visible
22 Feb -0.8 05:43:00 10° S 05:44:54 14° SE 05:46:49 10° ESE visible
24 Feb -2.1 05:43:03 10° SSW 05:46:04 31° SE 05:49:06 10° E visible
25 Feb -1.6 04:57:19 17° S 04:58:34 21° SE 05:01:11 10° E visible
26 Feb -0.8 04:11:49 13° ESE 04:11:49 13° ESE 04:12:58 10° ESE visible
26 Feb -3.4 05:44:47 16° SW 05:47:22 63° SSE 05:50:44 10° ENE visible
27 Feb -3.0 04:59:10 39° S 04:59:45 44° SSE 05:03:00 10° ENE visible
28 Feb -1.5 04:13:27 23° ESE 04:13:27 23° ESE 04:15:11 10° E visible
28 Feb -3.8 05:46:24 18° W 05:48:47 76° NNW 05:52:11 10° ENE visible
29 Feb -3.9 05:00:37 64° WSW 05:01:04 85° SSE 05:04:28 10° ENE visible
01 Mar -1.9 04:14:46 31° E 04:14:46 31° E 04:16:45 10° ENE visible
01 Mar -3.4 05:47:43 16° W 05:50:15 57° N 05:53:37 10° ENE visible
